CZ-8A R/B, 62980

Orbit data source: Space-Track

CZ-8A R/B, 62980 is space debris in LEO originally from a launch on Tue, 11 Feb 2025 UTC launched from the Wenchang Satellite Launch Center (WSC). Debris objects in space refer to the collection of defunct objects orbiting the Earth. Examples of debris include non-operational satellites, rocket bodies, and fragments generated from explosions, collisions, or faulty payload assembly.

Loading next visibility...
Identifier
62980, 2025-030K
Orbit
LEO
Country
Flag of CNCN / PRC
Related business
Manufacturer
CALT
Mission
Spacecraft
Bus & Motor
CZ-8A STAGE 2, Unknown motor
Mass
~2,800 kg wet, ~2,800 kg dry
Launch date (UTC)
2025-02-11 (1 year ago)
Launch vehicle
Unknown
Launch site
Wenchang Satellite Launch Center (WSC)
Object type
Payload
Rocket body
Debris
Shape & HBR
Cyl, 4.2 m
Radar Cross Section
36.967 m², Large (>1 m²)

Expand to show TLE details & history
Last TLE update: 23 hours ago

TLE from 23 hours ago
0 CZ-8A R/B
1 62980U 25030K   26036.70471722  .00000373  00000-0  18159-3 0  9992
2 62980  50.0057 138.4865 0118285 273.6742  85.0655 14.32902683 51514
Epoch: 2026-02-05T16:54Z
TLE epoch observation values (Epoch: 2026-02-05T16:54:47.567Z)
Latitude
-0.00005°
Longitude
108.93515°
Altitude
776.288 km
Speed
7.47 km/s
True Right ascension
09h 13m 56s
True Declination
0° 00' 00"
Sunlit
Object was in full shadow at epoch
Visualization orbit readout
Latitude
Unknown
Longitude
Unknown
Altitude
Unknown
Speed
Unknown
Apparent Right ascension
Unknown
Apparent Declination
Unknown
Sunlit
N/A
Visualization observer readout
Local Sidereal Time
17:44:09
Azimuth
Unknown
Elevation
Unknown
Doppler factor
Unknown
Orbital elements
Apogee altitude
867.488 km
Perigee altitude
698.082 km
Semi-major axis
7,160.922 km
Eccentricity
0.01183
Inclination
50.0057°
RAAN
138.4865°
Arg. of periapsis
273.6742°
True anomaly
86.41752°
Mean anomaly
85.0655°
Eccentric anomaly
85.74135°
Mean motion
3.5817 °/min
Orbital period
100.51 mins
BSTAR
0.00018159
Loading maneuver chart data...
Computing Atmospheric mass density...
Loading historical data...
Loading historical data...
Loading historical data...
Loading historical data...
Loading historical data...
Loading historical data...
Loading historical data...

Documentation

Showing up to 5 results
|